owner,sensor,date,latitude,longitude,air_temperature,qcFlag 
DISL,ioos:station:DISL:BSCA:1,2015-01-01T00:00:00Z,30.3288,-87.8293,9.4,11111222 
DISL,ioos:station:DISL:BSCA:1,2015-01-01T00:30:00Z,30.3288,-87.8293,9.6,11111222 
DISL,ioos:station:DISL:BSCA:1,2015-01-01T01:00:00Z,30.3288,-87.8293,9.5,11111222 
DISL,ioos:station:DISL:BSCA:1,2015-01-01T01:30:00Z,30.3288,-87.8293,9.4,11111222 
DISL,ioos:station:DISL:BSCA:1,2015-01-01T02:00:00Z,30.3288,-87.8293,9.2,11111222 
DISL,ioos:station:DISL:BSCA:1,2015-01-01T02:30:00Z,30.3288,-87.8293,9.0,11111222 
DISL,ioos:station:DISL:BSCA:1,2015-01-01T03:00:00Z,30.3288,-87.8293,8.8,11111222 
DISL,ioos:station:DISL:BSCA:1,2015-01-01T03:30:00Z,30.3288,-87.8293,8.6,11111222 
DISL,ioos:station:DISL:BSCA:1,2015-01-01T04:00:00Z,30.3288,-87.8293,8.6,11111222 
DISL,ioos:station:DISL:BSCA:1,2015-01-01T04:30:00Z,30.3288,-87.8293,8.3,11111222 
DISL,ioos:station:DISL:BSCA:1,2015-01-01T05:00:00Z,30.3288,-87.8293,8.1,11111222 
DISL,ioos:station:DISL:BSCA:1,2015-01-01T05:30:00Z,30.3288,-87.8293,8.1,11111222 
DISL,ioos:station:DISL:BSCA:1,2015-01-01T06:00:00Z,30.3288,-87.8293,8.0,11111222 
DISL,ioos:station:DISL:BSCA:1,2015-01-01T06:30:00Z,30.3288,-87.8293,7.889,1111122 
DISL,ioos:station:DISL:BSCA:1,2015-01-01T07:00:00Z,30.3288,-87.8293,7.649,1111122 
DISL,ioos:station:DISL:BSCA:1,2015-01-01T07:30:00Z,30.3288,-87.8293,7.311,1111122 
DISL,ioos:station:DISL:BSCA:1,2015-01-01T08:00:00Z,30.3288,-87.8293,7.145,1111122 
DISL,ioos:station:DISL:BSCA:1,2015-01-01T08:30:00Z,30.3288,-87.8293,6.944,1111122 
DISL,ioos:station:DISL:BSCA:1,2015-01-01T09:00:00Z,30.3288,-87.8293,6.708,1111122 
DISL,ioos:station:DISL:BSCA:1,2015-01-01T09:30:00Z,30.3288,-87.8293,6.777,1111122 
DISL,ioos:station:DISL:BSCA:1,2015-01-01T10:00:00Z,30.3288,-87.8293,6.981,1111122 
DISL,ioos:station:DISL:BSCA:1,2015-01-01T10:30:00Z,30.3288,-87.8293,6.811,1111122 
DISL,ioos:station:DISL:BSCA:1,2015-01-01T11:00:00Z,30.3288,-87.8293,7.015,1111122 
DISL,ioos:station:DISL:BSCA:1,2015-01-01T11:30:00Z,30.3288,-87.8293,7.252,1111122 
DISL,ioos:station:DISL:BSCA:1,2015-01-01T12:00:00Z,30.3288,-87.8293,7.388,1111122 
DISL,ioos:station:DISL:BSCA:1,2015-01-01T12:30:00Z,30.3288,-87.8293,7.557,1111122 
DISL,ioos:station:DISL:BSCA:1,2015-01-01T13:00:00Z,30.3288,-87.8293,7.964,1111122 
DISL,ioos:station:DISL:BSCA:1,2015-01-01T13:30:00Z,30.3288,-87.8293,8.16,1111122 
DISL,ioos:station:DISL:BSCA:1,2015-01-01T14:00:00Z,30.3288,-87.8293,8.56,1111122 
DISL,ioos:station:DISL:BSCA:1,2015-01-01T14:30:00Z,30.3288,-87.8293,8.83,1111122 
DISL,ioos:station:DISL:BSCA:1,2015-01-01T15:00:00Z,30.3288,-87.8293,9.41,1111122 
DISL,ioos:station:DISL:BSCA:1,2015-01-01T15:30:00Z,30.3288,-87.8293,10.22,1111122 
DISL,ioos:station:DISL:BSCA:1,2015-01-01T16:00:00Z,30.3288,-87.8293,10.93,1111122 
DISL,ioos:station:DISL:BSCA:1,2015-01-01T16:30:00Z,30.3288,-87.8293,11.81,1111122 
DISL,ioos:station:DISL:BSCA:1,2015-01-01T17:00:00Z,30.3288,-87.8293,12.41,1111122 
DISL,ioos:station:DISL:BSCA:1,2015-01-01T17:30:00Z,30.3288,-87.8293,13.15,1111122 
DISL,ioos:station:DISL:BSCA:1,2015-01-01T18:00:00Z,30.3288,-87.8293,13.36,1111122 
DISL,ioos:station:DISL:BSCA:1,2015-01-01T18:30:00Z,30.3288,-87.8293,12.94,1111122 
DISL,ioos:station:DISL:BSCA:1,2015-01-01T19:00:00Z,30.3288,-87.8293,13.15,1111122 
DISL,ioos:station:DISL:BSCA:1,2015-01-01T19:30:00Z,30.3288,-87.8293,14.03,1111122 
DISL,ioos:station:DISL:BSCA:1,2015-01-01T20:00:00Z,30.3288,-87.8293,14.1,1111122 
DISL,ioos:station:DISL:BSCA:1,2015-01-01T20:30:00Z,30.3288,-87.8293,14.09,1111122 
DISL,ioos:station:DISL:BSCA:1,2015-01-01T21:00:00Z,30.3288,-87.8293,14.3,1111122 
DISL,ioos:station:DISL:BSCA:1,2015-01-01T21:30:00Z,30.3288,-87.8293,14.53,1111122 
DISL,ioos:station:DISL:BSCA:1,2015-01-01T22:00:00Z,30.3288,-87.8293,14.43,1111122 
DISL,ioos:station:DISL:BSCA:1,2015-01-01T22:30:00Z,30.3288,-87.8293,14.23,1111122 
DISL,ioos:station:DISL:BSCA:1,2015-01-01T23:00:00Z,30.3288,-87.8293,13.86,1111122 
DISL,ioos:station:DISL:BSCA:1,2015-01-01T23:30:00Z,30.3288,-87.8293,13.39,1111122 
DISL,ioos:station:DISL:BSCA:1,2015-01-02T00:00:00Z,30.3288,-87.8293,13.02,1111122 
DISL,ioos:station:DISL:BSCA:1,2015-01-02T00:30:00Z,30.3288,-87.8293,12.71,1111122 
DISL,ioos:station:DISL:BSCA:1,2015-01-02T01:00:00Z,30.3288,-87.8293,12.71,1111122 
DISL,ioos:station:DISL:BSCA:1,2015-01-02T01:30:00Z,30.3288,-87.8293,12.68,1111122 
DISL,ioos:station:DISL:BSCA:1,2015-01-02T02:00:00Z,30.3288,-87.8293,12.54,1111122 
DISL,ioos:station:DISL:BSCA:1,2015-01-02T02:30:00Z,30.3288,-87.8293,12.27,1111122 
DISL,ioos:station:DISL:BSCA:1,2015-01-02T03:00:00Z,30.3288,-87.8293,11.56,1111122 
DISL,ioos:station:DISL:BSCA:1,2015-01-02T03:30:00Z,30.3288,-87.8293,11.87,1111122 
DISL,ioos:station:DISL:BSCA:1,2015-01-02T04:00:00Z,30.3288,-87.8293,11.49,1111122 
DISL,ioos:station:DISL:BSCA:1,2015-01-02T04:30:00Z,30.3288,-87.8293,11.56,1111122 
DISL,ioos:station:DISL:BSCA:1,2015-01-02T05:00:00Z,30.3288,-87.8293,11.9,1111122 
DISL,ioos:station:DISL:BSCA:1,2015-01-02T05:30:00Z,30.3288,-87.8293,11.93,1111122 
DISL,ioos:station:DISL:BSCA:1,2015-01-02T06:00:00Z,30.3288,-87.8293,12.1,1111122 
DISL,ioos:station:DISL:BSCA:1,2015-01-02T06:30:00Z,30.3288,-87.8293,12.31,1111122 
DISL,ioos:station:DISL:BSCA:1,2015-01-02T07:00:00Z,30.3288,-87.8293,12.31,1111122 
DISL,ioos:station:DISL:BSCA:1,2015-01-02T07:30:00Z,30.3288,-87.8293,12.68,1111122 
DISL,ioos:station:DISL:BSCA:1,2015-01-02T08:00:00Z,30.3288,-87.8293,12.58,1111122 
DISL,ioos:station:DISL:BSCA:1,2015-01-02T08:30:00Z,30.3288,-87.8293,12.41,1111122 
DISL,ioos:station:DISL:BSCA:1,2015-01-02T09:00:00Z,30.3288,-87.8293,12.44,1111122 
DISL,ioos:station:DISL:BSCA:1,2015-01-02T09:30:00Z,30.3288,-87.8293,12.75,1111122 
DISL,ioos:station:DISL:BSCA:1,2015-01-02T10:00:00Z,30.3288,-87.8293,12.98,1111122 
DISL,ioos:station:DISL:BSCA:1,2015-01-02T10:30:00Z,30.3288,-87.8293,13.12,1111122 
DISL,ioos:station:DISL:BSCA:1,2015-01-02T11:00:00Z,30.3288,-87.8293,13.12,1111122 
DISL,ioos:station:DISL:BSCA:1,2015-01-02T11:30:00Z,30.3288,-87.8293,13.25,1111122 
DISL,ioos:station:DISL:BSCA:1,2015-01-02T12:00:00Z,30.3288,-87.8293,13.39,1111122 
DISL,ioos:station:DISL:BSCA:1,2015-01-02T12:30:00Z,30.3288,-87.8293,13.32,1111122 
DISL,ioos:station:DISL:BSCA:1,2015-01-02T13:00:00Z,30.3288,-87.8293,13.66,1111122 
DISL,ioos:station:DISL:BSCA:1,2015-01-02T13:30:00Z,30.3288,-87.8293,14.27,1111122 
DISL,ioos:station:DISL:BSCA:1,2015-01-02T14:00:00Z,30.3288,-87.8293,14.81,1111122 
DISL,ioos:station:DISL:BSCA:1,2015-01-02T14:30:00Z,30.3288,-87.8293,15.83,1111122 
DISL,ioos:station:DISL:BSCA:1,2015-01-02T15:00:00Z,30.3288,-87.8293,16.67,1111122 
DISL,ioos:station:DISL:BSCA:1,2015-01-02T15:30:00Z,30.3288,-87.8293,17.13,1111122 
DISL,ioos:station:DISL:BSCA:1,2015-01-02T16:00:00Z,30.3288,-87.8293,17.61,1111122 
DISL,ioos:station:DISL:BSCA:1,2015-01-02T16:30:00Z,30.3288,-87.8293,18.12,1111122 
DISL,ioos:station:DISL:BSCA:1,2015-01-02T17:00:00Z,30.3288,-87.8293,18.05,1111122 
DISL,ioos:station:DISL:BSCA:1,2015-01-02T17:30:00Z,30.3288,-87.8293,18.01,1111122 
DISL,ioos:station:DISL:BSCA:1,2015-01-02T18:00:00Z,30.3288,-87.8293,17.98,1111122 
DISL,ioos:station:DISL:BSCA:1,2015-01-02T18:30:00Z,30.3288,-87.8293,18.25,1111122 
DISL,ioos:station:DISL:BSCA:1,2015-01-02T19:00:00Z,30.3288,-87.8293,18.35,1111122 
DISL,ioos:station:DISL:BSCA:1,2015-01-02T19:30:00Z,30.3288,-87.8293,18.11,1111122 
DISL,ioos:station:DISL:BSCA:1,2015-01-02T20:00:00Z,30.3288,-87.8293,18.59,1111122 
DISL,ioos:station:DISL:BSCA:1,2015-01-02T20:30:00Z,30.3288,-87.8293,18.59,1111122 
DISL,ioos:station:DISL:BSCA:1,2015-01-02T21:00:00Z,30.3288,-87.8293,18.45,1111122 
DISL,ioos:station:DISL:BSCA:1,2015-01-02T21:30:00Z,30.3288,-87.8293,18.62,1111122 
DISL,ioos:station:DISL:BSCA:1,2015-01-02T22:00:00Z,30.3288,-87.8293,18.9,1111122 
DISL,ioos:station:DISL:BSCA:1,2015-01-02T22:30:00Z,30.3288,-87.8293,19.37,1111122 
DISL,ioos:station:DISL:BSCA:1,2015-01-02T23:00:00Z,30.3288,-87.8293,18.79,1111122 
DISL,ioos:station:DISL:BSCA:1,2015-01-02T23:30:00Z,30.3288,-87.8293,18.56,1111122 
DISL,ioos:station:DISL:BSCA:1,2015-01-03T00:00:00Z,30.3288,-87.8293,18.29,1111122 
DISL,ioos:station:DISL:BSCA:1,2015-01-03T00:30:00Z,30.3288,-87.8293,18.35,1111122 
DISL,ioos:station:DISL:BSCA:1,2015-01-03T01:00:00Z,30.3288,-87.8293,18.45,1111122 
DISL,ioos:station:DISL:BSCA:1,2015-01-03T01:30:00Z,30.3288,-87.8293,18.39,1111122 
DISL,ioos:station:DISL:BSCA:1,2015-01-03T02:00:00Z,30.3288,-87.8293,18.49,1111122 
DISL,ioos:station:DISL:BSCA:1,2015-01-03T02:30:00Z,30.3288,-87.8293,18.32,1111122 
DISL,ioos:station:DISL:BSCA:1,2015-01-03T03:00:00Z,30.3288,-87.8293,17.98,1111122 
DISL,ioos:station:DISL:BSCA:1,2015-01-03T03:30:00Z,30.3288,-87.8293,18.32,1111122 
DISL,ioos:station:DISL:BSCA:1,2015-01-03T04:00:00Z,30.3288,-87.8293,18.76,1111122 
DISL,ioos:station:DISL:BSCA:1,2015-01-03T04:30:00Z,30.3288,-87.8293,18.69,1111122 
DISL,ioos:station:DISL:BSCA:1,2015-01-03T05:00:00Z,30.3288,-87.8293,18.39,1111122 
DISL,ioos:station:DISL:BSCA:1,2015-01-03T05:30:00Z,30.3288,-87.8293,18.45,1111122 
DISL,ioos:station:DISL:BSCA:1,2015-01-03T06:00:00Z,30.3288,-87.8293,18.66,1111122 
DISL,ioos:station:DISL:BSCA:1,2015-01-03T06:30:00Z,30.3288,-87.8293,18.39,1111122 
DISL,ioos:station:DISL:BSCA:1,2015-01-03T07:00:00Z,30.3288,-87.8293,18.15,1111122 
DISL,ioos:station:DISL:BSCA:1,2015-01-03T07:30:00Z,30.3288,-87.8293,18.42,1111122 
DISL,ioos:station:DISL:BSCA:1,2015-01-03T08:00:00Z,30.3288,-87.8293,18.59,1111122 
DISL,ioos:station:DISL:BSCA:1,2015-01-03T08:30:00Z,30.3288,-87.8293,18.89,1111122 
DISL,ioos:station:DISL:BSCA:1,2015-01-03T09:00:00Z,30.3288,-87.8293,18.93,1111122 
DISL,ioos:station:DISL:BSCA:1,2015-01-03T09:30:00Z,30.3288,-87.8293,19.13,1111122 
DISL,ioos:station:DISL:BSCA:1,2015-01-03T10:00:00Z,30.3288,-87.8293,19.06,1111122 
DISL,ioos:station:DISL:BSCA:1,2015-01-03T10:30:00Z,30.3288,-87.8293,19.16,1111122 
DISL,ioos:station:DISL:BSCA:1,2015-01-03T11:00:00Z,30.3288,-87.8293,18.17,1111122 
DISL,ioos:station:DISL:BSCA:1,2015-01-03T11:30:00Z,30.3288,-87.8293,18.89,1111122 
DISL,ioos:station:DISL:BSCA:1,2015-01-03T12:00:00Z,30.3288,-87.8293,18.55,1111122 
DISL,ioos:station:DISL:BSCA:1,2015-01-03T12:30:00Z,30.3288,-87.8293,18.62,1111122 
DISL,ioos:station:DISL:BSCA:1,2015-01-03T13:00:00Z,30.3288,-87.8293,18.89,1111122 
DISL,ioos:station:DISL:BSCA:1,2015-01-03T13:30:00Z,30.3288,-87.8293,19.23,1111122 
DISL,ioos:station:DISL:BSCA:1,2015-01-03T14:00:00Z,30.3288,-87.8293,18.96,1111122 
DISL,ioos:station:DISL:BSCA:1,2015-01-03T14:30:00Z,30.3288,-87.8293,19.03,1111122 
DISL,ioos:station:DISL:BSCA:1,2015-01-03T15:00:00Z,30.3288,-87.8293,19.47,1111122 
DISL,ioos:station:DISL:BSCA:1,2015-01-03T15:30:00Z,30.3288,-87.8293,19.39,1111122 
DISL,ioos:station:DISL:BSCA:1,2015-01-03T16:00:00Z,30.3288,-87.8293,19.59,1111122 
DISL,ioos:station:DISL:BSCA:1,2015-01-03T16:30:00Z,30.3288,-87.8293,19.45,1111122 
DISL,ioos:station:DISL:BSCA:1,2015-01-03T17:00:00Z,30.3288,-87.8293,19.62,1111122 
DISL,ioos:station:DISL:BSCA:1,2015-01-03T17:30:00Z,30.3288,-87.8293,19.89,1111122 
DISL,ioos:station:DISL:BSCA:1,2015-01-03T18:00:00Z,30.3288,-87.8293,19.96,1111122 
DISL,ioos:station:DISL:BSCA:1,2015-01-03T18:30:00Z,30.3288,-87.8293,19.96,1111122 
DISL,ioos:station:DISL:BSCA:1,2015-01-03T19:00:00Z,30.3288,-87.8293,20.09,1111122 
DISL,ioos:station:DISL:BSCA:1,2015-01-03T19:30:00Z,30.3288,-87.8293,20.37,1111122 
DISL,ioos:station:DISL:BSCA:1,2015-01-03T20:00:00Z,30.3288,-87.8293,20.3,1111122 
DISL,ioos:station:DISL:BSCA:1,2015-01-03T20:30:00Z,30.3288,-87.8293,20.57,1111122 
DISL,ioos:station:DISL:BSCA:1,2015-01-03T21:00:00Z,30.3288,-87.8293,20.4,1111122 
DISL,ioos:station:DISL:BSCA:1,2015-01-03T21:30:00Z,30.3288,-87.8293,20.06,1111122 
DISL,ioos:station:DISL:BSCA:1,2015-01-03T22:00:00Z,30.3288,-87.8293,20.13,1111122 
DISL,ioos:station:DISL:BSCA:1,2015-01-03T22:30:00Z,30.3288,-87.8293,20.06,1111122 
DISL,ioos:station:DISL:BSCA:1,2015-01-03T23:00:00Z,30.3288,-87.8293,20.16,1111122 
DISL,ioos:station:DISL:BSCA:1,2015-01-03T23:30:00Z,30.3288,-87.8293,20.06,1111122 
DISL,ioos:station:DISL:BSCA:1,2015-01-04T00:00:00Z,30.3288,-87.8293,20.06,1111122 
DISL,ioos:station:DISL:BSCA:1,2015-01-04T00:30:00Z,30.3288,-87.8293,19.86,1111122 
DISL,ioos:station:DISL:BSCA:1,2015-01-04T01:00:00Z,30.3288,-87.8293,19.82,1111122 
DISL,ioos:station:DISL:BSCA:1,2015-01-04T01:30:00Z,30.3288,-87.8293,19.72,1111122 
DISL,ioos:station:DISL:BSCA:1,2015-01-04T02:00:00Z,30.3288,-87.8293,19.99,1111122 
DISL,ioos:station:DISL:BSCA:1,2015-01-04T02:30:00Z,30.3288,-87.8293,20.1,1111122 
DISL,ioos:station:DISL:BSCA:1,2015-01-04T03:00:00Z,30.3288,-87.8293,20.03,1111122 
DISL,ioos:station:DISL:BSCA:1,2015-01-04T03:30:00Z,30.3288,-87.8293,20.3,1111122 
DISL,ioos:station:DISL:BSCA:1,2015-01-04T04:00:00Z,30.3288,-87.8293,20.3,1111122 
DISL,ioos:station:DISL:BSCA:1,2015-01-04T04:30:00Z,30.3288,-87.8293,20.06,1111122 
DISL,ioos:station:DISL:BSCA:1,2015-01-04T05:00:00Z,30.3288,-87.8293,20.4,1111122 
DISL,ioos:station:DISL:BSCA:1,2015-01-04T05:30:00Z,30.3288,-87.8293,19.83,1111122 
DISL,ioos:station:DISL:BSCA:1,2015-01-04T06:00:00Z,30.3288,-87.8293,19.89,1111122 
DISL,ioos:station:DISL:BSCA:1,2015-01-04T06:30:00Z,30.3288,-87.8293,20.13,1111122 
DISL,ioos:station:DISL:BSCA:1,2015-01-04T07:00:00Z,30.3288,-87.8293,19.99,1111122 
DISL,ioos:station:DISL:BSCA:1,2015-01-04T07:30:00Z,30.3288,-87.8293,19.35,1111122 
DISL,ioos:station:DISL:BSCA:1,2015-01-04T08:00:00Z,30.3288,-87.8293,19.69,1111122 
DISL,ioos:station:DISL:BSCA:1,2015-01-04T08:30:00Z,30.3288,-87.8293,19.19,1111122 
DISL,ioos:station:DISL:BSCA:1,2015-01-04T09:00:00Z,30.3288,-87.8293,18.38,1111122 
DISL,ioos:station:DISL:BSCA:1,2015-01-04T09:30:00Z,30.3288,-87.8293,17.33,1111122 
DISL,ioos:station:DISL:BSCA:1,2015-01-04T10:00:00Z,30.3288,-87.8293,16.83,1111122 
DISL,ioos:station:DISL:BSCA:1,2015-01-04T10:30:00Z,30.3288,-87.8293,16.73,1111122 
DISL,ioos:station:DISL:BSCA:1,2015-01-04T11:00:00Z,30.3288,-87.8293,16.56,1111122 
DISL,ioos:station:DISL:BSCA:1,2015-01-04T11:30:00Z,30.3288,-87.8293,16.32,1111122 
DISL,ioos:station:DISL:BSCA:1,2015-01-04T12:00:00Z,30.3288,-87.8293,16.79,1111122 
DISL,ioos:station:DISL:BSCA:1,2015-01-04T12:30:00Z,30.3288,-87.8293,16.66,1111122 
DISL,ioos:station:DISL:BSCA:1,2015-01-04T13:00:00Z,30.3288,-87.8293,16.66,1111122 
DISL,ioos:station:DISL:BSCA:1,2015-01-04T13:30:00Z,30.3288,-87.8293,16.05,1111122 
DISL,ioos:station:DISL:BSCA:1,2015-01-04T14:00:00Z,30.3288,-87.8293,15.81,1111122 
DISL,ioos:station:DISL:BSCA:1,2015-01-04T14:30:00Z,30.3288,-87.8293,15.3,1111122 
DISL,ioos:station:DISL:BSCA:1,2015-01-04T15:00:00Z,30.3288,-87.8293,15.44,1111122 
DISL,ioos:station:DISL:BSCA:1,2015-01-04T15:30:00Z,30.3288,-87.8293,15.37,1111122 
DISL,ioos:station:DISL:BSCA:1,2015-01-04T16:00:00Z,30.3288,-87.8293,15.27,1111122 
DISL,ioos:station:DISL:BSCA:1,2015-01-04T16:30:00Z,30.3288,-87.8293,15.44,1111122 
DISL,ioos:station:DISL:BSCA:1,2015-01-04T17:00:00Z,30.3288,-87.8293,15.68,1111122 
DISL,ioos:station:DISL:BSCA:1,2015-01-04T17:30:00Z,30.3288,-87.8293,15.78,1111122 
DISL,ioos:station:DISL:BSCA:1,2015-01-04T18:00:00Z,30.3288,-87.8293,15.47,1111122 
DISL,ioos:station:DISL:BSCA:1,2015-01-04T18:30:00Z,30.3288,-87.8293,15.24,1111122 
DISL,ioos:station:DISL:BSCA:1,2015-01-04T19:00:00Z,30.3288,-87.8293,15.34,1111122 
DISL,ioos:station:DISL:BSCA:1,2015-01-04T19:30:00Z,30.3288,-87.8293,15.07,1111122 
DISL,ioos:station:DISL:BSCA:1,2015-01-04T20:00:00Z,30.3288,-87.8293,15.37,1111122 
DISL,ioos:station:DISL:BSCA:1,2015-01-04T20:30:00Z,30.3288,-87.8293,15.61,1111122 
DISL,ioos:station:DISL:BSCA:1,2015-01-04T21:00:00Z,30.3288,-87.8293,15.3,1111122 
DISL,ioos:station:DISL:BSCA:1,2015-01-04T21:30:00Z,30.3288,-87.8293,15.3,1111122 
DISL,ioos:station:DISL:BSCA:1,2015-01-04T22:00:00Z,30.3288,-87.8293,15.37,1111122 
DISL,ioos:station:DISL:BSCA:1,2015-01-04T22:30:00Z,30.3288,-87.8293,15.34,1111122 
DISL,ioos:station:DISL:BSCA:1,2015-01-04T23:00:00Z,30.3288,-87.8293,15.45,1111122 
DISL,ioos:station:DISL:BSCA:1,2015-01-04T23:30:00Z,30.3288,-87.8293,14.84,1111122 
DISL,ioos:station:DISL:BSCA:1,2015-01-05T00:00:00Z,30.3288,-87.8293,15.01,1111122 
DISL,ioos:station:DISL:BSCA:1,2015-01-05T00:30:00Z,30.3288,-87.8293,14.87,1111122 
DISL,ioos:station:DISL:BSCA:1,2015-01-05T01:00:00Z,30.3288,-87.8293,14.61,1111122 
DISL,ioos:station:DISL:BSCA:1,2015-01-05T01:30:00Z,30.3288,-87.8293,14.3,1111122 
DISL,ioos:station:DISL:BSCA:1,2015-01-05T02:00:00Z,30.3288,-87.8293,13.73,1111122 
DISL,ioos:station:DISL:BSCA:1,2015-01-05T02:30:00Z,30.3288,-87.8293,13.49,1111122 
DISL,ioos:station:DISL:BSCA:1,2015-01-05T03:00:00Z,30.3288,-87.8293,12.98,1111122 
DISL,ioos:station:DISL:BSCA:1,2015-01-05T03:30:00Z,30.3288,-87.8293,12.34,1111122 
DISL,ioos:station:DISL:BSCA:1,2015-01-05T04:00:00Z,30.3288,-87.8293,12.17,1111122 
DISL,ioos:station:DISL:BSCA:1,2015-01-05T04:30:00Z,30.3288,-87.8293,11.53,1111122 
DISL,ioos:station:DISL:BSCA:1,2015-01-05T05:00:00Z,30.3288,-87.8293,11.12,1111122 
DISL,ioos:station:DISL:BSCA:1,2015-01-05T05:30:00Z,30.3288,-87.8293,10.86,1111122 
DISL,ioos:station:DISL:BSCA:1,2015-01-05T06:00:00Z,30.3288,-87.8293,10.49,1111122 
DISL,ioos:station:DISL:BSCA:1,2015-01-05T06:30:00Z,30.3288,-87.8293,10.08,1111122 
DISL,ioos:station:DISL:BSCA:1,2015-01-05T07:00:00Z,30.3288,-87.8293,9.81,1111122 
DISL,ioos:station:DISL:BSCA:1,2015-01-05T07:30:00Z,30.3288,-87.8293,9.2,1111122 
DISL,ioos:station:DISL:BSCA:1,2015-01-05T08:00:00Z,30.3288,-87.8293,8.93,1111122 
DISL,ioos:station:DISL:BSCA:1,2015-01-05T08:30:00Z,30.3288,-87.8293,8.32,1111122 
DISL,ioos:station:DISL:BSCA:1,2015-01-05T09:00:00Z,30.3288,-87.8293,7.982,1111122 
DISL,ioos:station:DISL:BSCA:1,2015-01-05T09:30:00Z,30.3288,-87.8293,7.679,1111122 
DISL,ioos:station:DISL:BSCA:1,2015-01-05T10:00:00Z,30.3288,-87.8293,7.384,1111122 
DISL,ioos:station:DISL:BSCA:1,2015-01-05T10:30:00Z,30.3288,-87.8293,7.049,1111122 
DISL,ioos:station:DISL:BSCA:1,2015-01-05T11:00:00Z,30.3288,-87.8293,6.777,1111122 
DISL,ioos:station:DISL:BSCA:1,2015-01-05T11:30:00Z,30.3288,-87.8293,6.235,1111122 
DISL,ioos:station:DISL:BSCA:1,2015-01-05T12:00:00Z,30.3288,-87.8293,6.133,1111122 
DISL,ioos:station:DISL:BSCA:1,2015-01-05T12:30:00Z,30.3288,-87.8293,5.76,1111122 
DISL,ioos:station:DISL:BSCA:1,2015-01-05T13:00:00Z,30.3288,-87.8293,5.251,1111122 
DISL,ioos:station:DISL:BSCA:1,2015-01-05T13:30:00Z,30.3288,-87.8293,4.946,1111122 
DISL,ioos:station:DISL:BSCA:1,2015-01-05T14:00:00Z,30.3288,-87.8293,4.878,1111122 
DISL,ioos:station:DISL:BSCA:1,2015-01-05T14:30:00Z,30.3288,-87.8293,4.878,1111122 
DISL,ioos:station:DISL:BSCA:1,2015-01-05T15:00:00Z,30.3288,-87.8293,5.522,1111122 
DISL,ioos:station:DISL:BSCA:1,2015-01-05T15:30:00Z,30.3288,-87.8293,5.285,1111122 
DISL,ioos:station:DISL:BSCA:1,2015-01-05T16:00:00Z,30.3288,-87.8293,5.76,1111122 
DISL,ioos:station:DISL:BSCA:1,2015-01-05T16:30:00Z,30.3288,-87.8293,6.235,1111122 
DISL,ioos:station:DISL:BSCA:1,2015-01-05T17:00:00Z,30.3288,-87.8293,7.042,1111122 
DISL,ioos:station:DISL:BSCA:1,2015-01-05T17:30:00Z,30.3288,-87.8293,7.237,1111122 
DISL,ioos:station:DISL:BSCA:1,2015-01-05T18:00:00Z,30.3288,-87.8293,8.08,1111122 
DISL,ioos:station:DISL:BSCA:1,2015-01-05T18:30:00Z,30.3288,-87.8293,8.73,1111122 
DISL,ioos:station:DISL:BSCA:1,2015-01-05T19:00:00Z,30.3288,-87.8293,9.47,1111122 
DISL,ioos:station:DISL:BSCA:1,2015-01-05T19:30:00Z,30.3288,-87.8293,10.72,1111122 
DISL,ioos:station:DISL:BSCA:1,2015-01-05T20:00:00Z,30.3288,-87.8293,11.53,1111122 
DISL,ioos:station:DISL:BSCA:1,2015-01-05T20:30:00Z,30.3288,-87.8293,11.86,1111122 
DISL,ioos:station:DISL:BSCA:1,2015-01-05T21:00:00Z,30.3288,-87.8293,12.17,1111122 
DISL,ioos:station:DISL:BSCA:1,2015-01-05T21:30:00Z,30.3288,-87.8293,11.9,1111122 
DISL,ioos:station:DISL:BSCA:1,2015-01-05T22:00:00Z,30.3288,-87.8293,11.73,1111122 
DISL,ioos:station:DISL:BSCA:1,2015-01-05T22:30:00Z,30.3288,-87.8293,11.53,1111122 
DISL,ioos:station:DISL:BSCA:1,2015-01-05T23:00:00Z,30.3288,-87.8293,11.29,1111122 
DISL,ioos:station:DISL:BSCA:1,2015-01-05T23:30:00Z,30.3288,-87.8293,11.13,1111122 
DISL,ioos:station:DISL:BSCA:1,2015-01-06T00:00:00Z,30.3288,-87.8293,10.8,1111122 
DISL,ioos:station:DISL:BSCA:1,2015-01-06T00:30:00Z,30.3288,-87.8293,10.42,1111122 
DISL,ioos:station:DISL:BSCA:1,2015-01-06T01:00:00Z,30.3288,-87.8293,9.95,1111122 
DISL,ioos:station:DISL:BSCA:1,2015-01-06T01:30:00Z,30.3288,-87.8293,9.14,1111122 
DISL,ioos:station:DISL:BSCA:1,2015-01-06T02:00:00Z,30.3288,-87.8293,8.56,1111122 
DISL,ioos:station:DISL:BSCA:1,2015-01-06T02:30:00Z,30.3288,-87.8293,8.22,1111122 
DISL,ioos:station:DISL:BSCA:1,2015-01-06T03:00:00Z,30.3288,-87.8293,8.12,1111122 
DISL,ioos:station:DISL:BSCA:1,2015-01-06T03:30:00Z,30.3288,-87.8293,7.957,1111122 
DISL,ioos:station:DISL:BSCA:1,2015-01-06T04:00:00Z,30.3288,-87.8293,7.691,1111122 
DISL,ioos:station:DISL:BSCA:1,2015-01-06T04:30:00Z,30.3288,-87.8293,7.591,1111122 
DISL,ioos:station:DISL:BSCA:1,2015-01-06T05:00:00Z,30.3288,-87.8293,7.727,1111122 
DISL,ioos:station:DISL:BSCA:1,2015-01-06T05:30:00Z,30.3288,-87.8293,7.015,1111122 
DISL,ioos:station:DISL:BSCA:1,2015-01-06T06:00:00Z,30.3288,-87.8293,7.151,1111122 
DISL,ioos:station:DISL:BSCA:1,2015-01-06T06:30:00Z,30.3288,-87.8293,6.913,1111122 
DISL,ioos:station:DISL:BSCA:1,2015-01-06T07:00:00Z,30.3288,-87.8293,6.676,1111122 
DISL,ioos:station:DISL:BSCA:1,2015-01-06T07:30:00Z,30.3288,-87.8293,6.642,1111122 
DISL,ioos:station:DISL:BSCA:1,2015-01-06T08:00:00Z,30.3288,-87.8293,6.71,1111122 
DISL,ioos:station:DISL:BSCA:1,2015-01-06T08:30:00Z,30.3288,-87.8293,6.37,1111122 
DISL,ioos:station:DISL:BSCA:1,2015-01-06T09:00:00Z,30.3288,-87.8293,6.404,1111122 
DISL,ioos:station:DISL:BSCA:1,2015-01-06T09:30:00Z,30.3288,-87.8293,6.133,1111122 
DISL,ioos:station:DISL:BSCA:1,2015-01-06T10:00:00Z,30.3288,-87.8293,5.692,1111122 
DISL,ioos:station:DISL:BSCA:1,2015-01-06T10:30:00Z,30.3288,-87.8293,5.522,1111122 
DISL,ioos:station:DISL:BSCA:1,2015-01-06T11:00:00Z,30.3288,-87.8293,5.556,1111122 
DISL,ioos:station:DISL:BSCA:1,2015-01-06T11:30:00Z,30.3288,-87.8293,5.488,1111122 
DISL,ioos:station:DISL:BSCA:1,2015-01-06T12:00:00Z,30.3288,-87.8293,5.488,1111122 
DISL,ioos:station:DISL:BSCA:1,2015-01-06T12:30:00Z,30.3288,-87.8293,5.319,1111122 
DISL,ioos:station:DISL:BSCA:1,2015-01-06T13:00:00Z,30.3288,-87.8293,4.708,1111122 
DISL,ioos:station:DISL:BSCA:1,2015-01-06T13:30:00Z,30.3288,-87.8293,5.357,1111122 
DISL,ioos:station:DISL:BSCA:1,2015-01-06T14:00:00Z,30.3288,-87.8293,6.031,1111122 
DISL,ioos:station:DISL:BSCA:1,2015-01-06T14:30:00Z,30.3288,-87.8293,6.71,1111122 
DISL,ioos:station:DISL:BSCA:1,2015-01-06T15:00:00Z,30.3288,-87.8293,7.558,1111122 
DISL,ioos:station:DISL:BSCA:1,2015-01-06T15:30:00Z,30.3288,-87.8293,8.83,1111122 
DISL,ioos:station:DISL:BSCA:1,2015-01-06T16:00:00Z,30.3288,-87.8293,9.58,1111122 
DISL,ioos:station:DISL:BSCA:1,2015-01-06T16:30:00Z,30.3288,-87.8293,9.81,1111122 
DISL,ioos:station:DISL:BSCA:1,2015-01-06T17:00:00Z,30.3288,-87.8293,10.34,1111122 
DISL,ioos:station:DISL:BSCA:1,2015-01-06T17:30:00Z,30.3288,-87.8293,11.22,1111122 
DISL,ioos:station:DISL:BSCA:1,2015-01-06T18:00:00Z,30.3288,-87.8293,11.32,1111122 
DISL,ioos:station:DISL:BSCA:1,2015-01-06T18:30:00Z,30.3288,-87.8293,11.83,1111122 
DISL,ioos:station:DISL:BSCA:1,2015-01-06T19:00:00Z,30.3288,-87.8293,12.27,1111122 
DISL,ioos:station:DISL:BSCA:1,2015-01-06T19:30:00Z,30.3288,-87.8293,13.22,1111122 
DISL,ioos:station:DISL:BSCA:1,2015-01-06T20:00:00Z,30.3288,-87.8293,13.52,1111122 
DISL,ioos:station:DISL:BSCA:1,2015-01-06T20:30:00Z,30.3288,-87.8293,13.93,1111122 
DISL,ioos:station:DISL:BSCA:1,2015-01-06T21:00:00Z,30.3288,-87.8293,14.06,1111122 
DISL,ioos:station:DISL:BSCA:1,2015-01-06T21:30:00Z,30.3288,-87.8293,14.6,1111122 
DISL,ioos:station:DISL:BSCA:1,2015-01-06T22:00:00Z,30.3288,-87.8293,14.97,1111122 
DISL,ioos:station:DISL:BSCA:1,2015-01-06T22:30:00Z,30.3288,-87.8293,12.53,1111122 
DISL,ioos:station:DISL:BSCA:1,2015-01-06T23:00:00Z,30.3288,-87.8293,12.74,1111122 
DISL,ioos:station:DISL:BSCA:1,2015-01-06T23:30:00Z,30.3288,-87.8293,12.44,1111122 
DISL,ioos:station:DISL:BSCA:1,2015-01-07T00:00:00Z,30.3288,-87.8293,12.37,1111122 